TimeCDT,TemperatureF,Dew PointF,Humidity,Sea Level PressureIn,VisibilityMPH,Wind Direction,Wind SpeedMPH,Gust SpeedMPH,PrecipitationIn,Events,Conditions,WindDirDegrees,DateUTC
12:04 AM,69.1,66.0,90,29.94,9.0,Calm,Calm,-,0.00,Rain-Thunderstorm,Light Thunderstorms and Rain,0,2013-09-20 05:04:00
12:25 AM,68.0,66.0,93,29.94,2.5,South,4.6,-,0.15,Rain-Thunderstorm,Heavy Thunderstorms and Rain,190,2013-09-20 05:25:00
12:31 AM,68.0,66.0,93,29.93,3.0,SSE,6.9,-,0.20,Rain-Thunderstorm,Heavy Rain,160,2013-09-20 05:31:00
12:54 AM,68.0,66.0,93,29.90,6.0,SSE,9.2,-,0.32,Rain-Thunderstorm,Rain,160,2013-09-20 05:54:00
1:07 AM,68.0,66.0,93,29.92,8.0,South,11.5,-,0.04,Rain-Thunderstorm,Thunderstorms and Rain,170,2013-09-20 06:07:00
1:22 AM,68.0,66.0,93,29.93,7.0,SSW,8.1,-,0.08,Rain,Rain,200,2013-09-20 06:22:00
1:54 AM,68.0,66.9,96,29.90,7.0,South,8.1,-,0.19,Rain-Thunderstorm,Thunderstorms and Rain,170,2013-09-20 06:54:00
2:13 AM,68.0,66.9,96,29.92,8.0,SE,6.9,-,0.06,Rain,Light Rain,140,2013-09-20 07:13:00
2:22 AM,68.0,66.9,96,29.92,10.0,SSE,5.8,-,0.07,Rain,Light Rain,160,2013-09-20 07:22:00
2:31 AM,68.0,66.9,96,29.91,10.0,South,5.8,-,0.08,Rain,Light Rain,170,2013-09-20 07:31:00
2:54 AM,68.0,66.0,93,29.88,10.0,SSW,3.5,-,0.09,Rain,Light Rain,210,2013-09-20 07:54:00
3:54 AM,68.0,66.0,93,29.90,10.0,WSW,9.2,-,0.00,,Overcast,240,2013-09-20 08:54:00
4:09 AM,68.0,66.0,93,29.92,10.0,SW,8.1,-,N/A,,Mostly Cloudy,230,2013-09-20 09:09:00
4:54 AM,68.0,66.0,93,29.93,10.0,West,8.1,-,N/A,,Mostly Cloudy,260,2013-09-20 09:54:00
5:06 AM,68.0,66.0,93,29.94,10.0,WSW,6.9,-,N/A,,Mostly Cloudy,250,2013-09-20 10:06:00
5:17 AM,66.9,64.9,93,29.93,10.0,WSW,5.8,-,N/A,,Scattered Clouds,250,2013-09-20 10:17:00
5:54 AM,66.9,66.0,97,29.90,10.0,West,5.8,-,N/A,,Mostly Cloudy,270,2013-09-20 10:54:00
6:21 AM,66.9,66.0,97,29.93,10.0,West,4.6,-,N/A,,Overcast,260,2013-09-20 11:21:00
6:48 AM,68.0,66.2,94,29.93,10.0,WSW,5.8,-,N/A,,Overcast,240,2013-09-20 11:48:00
6:49 AM,68.0,66.0,93,29.91,10.0,WSW,5.8,-,N/A,,Overcast,240,2013-09-20 11:49:00
7:36 AM,66.9,64.9,93,29.95,10.0,WNW,16.1,-,N/A,,Overcast,300,2013-09-20 12:36:00
7:54 AM,66.0,63.0,90,29.93,10.0,NW,17.3,-,N/A,,Overcast,310,2013-09-20 12:54:00
8:00 AM,64.9,63.0,93,29.96,10.0,NW,12.7,-,N/A,,Overcast,320,2013-09-20 13:00:00
8:08 AM,66.0,63.0,90,29.96,10.0,NW,11.5,-,N/A,,Overcast,320,2013-09-20 13:08:00
8:32 AM,64.9,63.0,93,29.96,10.0,NNW,15.0,-,N/A,,Overcast,330,2013-09-20 13:32:00
8:54 AM,64.0,61.0,90,29.94,10.0,NW,11.5,-,N/A,,Overcast,320,2013-09-20 13:54:00
9:54 AM,64.0,60.1,87,29.94,10.0,NNW,10.4,-,N/A,,Partly Cloudy,340,2013-09-20 14:54:00
10:54 AM,66.0,57.9,75,29.97,10.0,NNW,15.0,-,N/A,,Clear,340,2013-09-20 15:54:00
11:54 AM,66.9,57.0,70,29.97,10.0,NW,11.5,-,N/A,,Clear,320,2013-09-20 16:54:00
12:54 PM,68.0,57.0,68,29.97,10.0,NW,10.4,-,N/A,,Clear,320,2013-09-20 17:54:00
1:54 PM,70.0,55.0,59,29.95,10.0,NNW,11.5,-,N/A,,Clear,330,2013-09-20 18:54:00
2:54 PM,70.0,55.0,59,29.94,10.0,NW,10.4,-,N/A,,Clear,310,2013-09-20 19:54:00
3:54 PM,71.1,53.1,53,29.92,10.0,NW,8.1,-,N/A,,Clear,310,2013-09-20 20:54:00
4:54 PM,70.0,52.0,53,29.92,10.0,NW,11.5,-,N/A,,Clear,310,2013-09-20 21:54:00
5:54 PM,68.0,51.1,55,29.91,10.0,NW,10.4,-,N/A,,Clear,320,2013-09-20 22:54:00
6:54 PM,64.9,51.1,61,29.92,10.0,NW,8.1,-,N/A,,Clear,320,2013-09-20 23:54:00
7:54 PM,61.0,51.1,70,29.94,10.0,NW,5.8,-,N/A,,Clear,310,2013-09-21 00:54:00
8:54 PM,60.1,51.1,72,29.96,10.0,WNW,4.6,-,N/A,,Clear,290,2013-09-21 01:54:00
9:54 PM,57.9,51.1,78,29.96,10.0,WNW,4.6,-,N/A,,Clear,300,2013-09-21 02:54:00
10:54 PM,57.0,52.0,83,29.96,10.0,WNW,3.5,-,N/A,,Clear,290,2013-09-21 03:54:00
11:54 PM,55.9,52.0,87,29.96,7.0,WNW,5.8,-,N/A,,Clear,290,2013-09-21 04:54:00